Time,TemperatureF,DewpointF,PressureIn,WindDirection,WindDirectionDegrees,WindSpeedMPH,WindSpeedGustMPH,Humidity,HourlyPrecipIn,Conditions,Clouds,dailyrainin,SoftwareType,DateUTC
2013-08-16 00:00:00,60.0,54.5,30.18,ESE,106,0.0,0.0,82,0.00,,,0.00,Wunderground v.1.15,2013-08-16 05:00:00,
2013-08-16 00:05:00,60.0,54.5,30.18,ESE,106,0.0,0.0,82,0.00,,,0.00,Wunderground v.1.15,2013-08-16 05:05:00,
2013-08-16 00:15:00,60.0,54.8,30.18,ESE,106,0.0,0.0,83,0.00,,,0.00,Wunderground v.1.15,2013-08-16 05:15:00,
2013-08-16 00:25:00,60.0,54.8,30.18,ESE,106,0.0,0.0,83,0.00,,,0.00,Wunderground v.1.15,2013-08-16 05:25:00,
2013-08-16 00:35:00,60.2,55.0,30.18,ESE,106,0.0,0.0,83,0.00,,,0.00,Wunderground v.1.15,2013-08-16 05:35:00,
2013-08-16 00:40:00,60.2,55.0,30.18,ESE,106,0.0,0.0,83,0.00,,,0.00,Wunderground v.1.15,2013-08-16 05:40:00,
2013-08-16 00:50:00,60.2,55.0,30.17,ESE,106,0.0,0.0,83,0.00,,,0.00,Wunderground v.1.15,2013-08-16 05:50:00,
2013-08-16 00:55:00,60.3,55.1,30.17,ESE,106,0.0,0.0,83,0.00,,,0.00,Wunderground v.1.15,2013-08-16 05:55:00,
2013-08-16 01:00:00,60.3,55.1,30.17,ESE,106,0.0,0.0,83,0.00,,,0.00,Wunderground v.1.15,2013-08-16 06:00:00,
2013-08-16 01:10:00,60.3,54.8,30.17,ESE,106,0.0,0.0,82,0.00,,,0.00,Wunderground v.1.15,2013-08-16 06:10:00,
2013-08-16 01:15:00,60.2,54.7,30.17,ESE,106,0.0,0.0,82,0.00,,,0.00,Wunderground v.1.15,2013-08-16 06:15:00,
2013-08-16 01:25:00,60.2,54.7,30.16,ESE,106,0.0,0.0,82,0.00,,,0.00,Wunderground v.1.15,2013-08-16 06:25:00,
2013-08-16 01:35:00,60.2,55.0,30.16,ESE,106,0.0,0.0,83,0.00,,,0.00,Wunderground v.1.15,2013-08-16 06:35:00,
2013-08-16 01:40:00,60.2,55.0,30.16,ESE,106,0.0,0.0,83,0.00,,,0.00,Wunderground v.1.15,2013-08-16 06:40:00,
2013-08-16 01:45:00,60.2,55.0,30.16,ESE,106,0.0,0.0,83,0.00,,,0.00,Wunderground v.1.15,2013-08-16 06:45:00,
2013-08-16 01:55:00,60.2,55.0,30.16,ESE,106,0.0,0.0,83,0.00,,,0.00,Wunderground v.1.15,2013-08-16 06:55:00,
2013-08-16 02:00:00,60.2,55.0,30.16,ESE,106,0.0,0.0,83,0.00,,,0.00,Wunderground v.1.15,2013-08-16 07:00:00,
2013-08-16 02:10:00,60.1,54.6,30.16,ESE,106,0.0,0.0,82,0.00,,,0.00,Wunderground v.1.15,2013-08-16 07:10:00,
2013-08-16 02:15:00,60.0,54.5,30.16,ESE,106,0.0,0.0,82,0.00,,,0.00,Wunderground v.1.15,2013-08-16 07:15:00,
2013-08-16 02:25:00,59.9,54.4,30.15,ESE,106,0.0,0.0,82,0.00,,,0.00,Wunderground v.1.15,2013-08-16 07:25:00,
2013-08-16 02:30:00,59.8,54.3,30.15,ESE,106,0.0,0.0,82,0.00,,,0.00,Wunderground v.1.15,2013-08-16 07:30:00,
2013-08-16 02:40:00,59.8,54.3,30.16,ESE,106,0.0,0.0,82,0.00,,,0.00,Wunderground v.1.15,2013-08-16 07:40:00,
2013-08-16 02:45:00,59.8,54.3,30.16,ESE,106,0.0,0.0,82,0.00,,,0.00,Wunderground v.1.15,2013-08-16 07:45:00,
2013-08-16 02:55:00,59.7,54.2,30.16,ESE,106,0.0,0.0,82,0.00,,,0.00,Wunderground v.1.15,2013-08-16 07:55:00,
2013-08-16 03:00:00,59.6,54.1,30.16,ESE,106,0.0,0.0,82,0.00,,,0.00,Wunderground v.1.15,2013-08-16 08:00:00,
2013-08-16 03:10:00,59.6,54.1,30.16,ESE,106,0.0,0.0,82,0.00,,,0.00,Wunderground v.1.15,2013-08-16 08:10:00,
2013-08-16 03:15:00,59.6,54.1,30.16,ESE,106,0.0,0.0,82,0.00,,,0.00,Wunderground v.1.15,2013-08-16 08:15:00,
2013-08-16 03:20:00,59.6,54.1,30.16,ESE,106,0.0,0.0,82,0.00,,,0.00,Wunderground v.1.15,2013-08-16 08:20:00,
2013-08-16 03:30:00,59.6,54.1,30.16,ESE,106,0.0,0.0,82,0.00,,,0.00,Wunderground v.1.15,2013-08-16 08:30:00,
2013-08-16 03:35:00,59.6,54.1,30.16,ESE,106,0.0,0.0,82,0.00,,,0.00,Wunderground v.1.15,2013-08-16 08:35:00,
2013-08-16 03:45:00,59.6,54.1,30.16,ESE,106,0.0,0.0,82,0.00,,,0.00,Wunderground v.1.15,2013-08-16 08:45:00,
2013-08-16 03:50:00,59.7,54.2,30.16,ESE,106,0.0,0.0,82,0.00,,,0.00,Wunderground v.1.15,2013-08-16 08:50:00,
2013-08-16 04:00:00,59.7,54.2,30.16,ESE,106,0.0,0.0,82,0.00,,,0.00,Wunderground v.1.15,2013-08-16 09:00:00,
2013-08-16 04:05:00,59.6,54.4,30.16,ESE,106,0.0,0.0,83,0.00,,,0.00,Wunderground v.1.15,2013-08-16 09:05:00,
2013-08-16 04:15:00,59.7,54.5,30.16,ESE,106,0.0,0.0,83,0.00,,,0.00,Wunderground v.1.15,2013-08-16 09:15:00,
2013-08-16 04:20:00,59.6,54.1,30.16,ESE,106,0.0,0.0,82,0.00,,,0.00,Wunderground v.1.15,2013-08-16 09:20:00,
2013-08-16 04:25:00,59.6,54.1,30.16,ESE,106,0.0,0.0,82,0.00,,,0.00,Wunderground v.1.15,2013-08-16 09:25:00,
2013-08-16 04:35:00,59.7,54.2,30.16,ESE,106,0.0,0.0,82,0.00,,,0.00,Wunderground v.1.15,2013-08-16 09:35:00,
2013-08-16 04:40:00,59.7,54.5,30.16,ESE,106,0.0,0.0,83,0.00,,,0.00,Wunderground v.1.15,2013-08-16 09:40:00,
2013-08-16 04:50:00,59.7,54.2,30.16,ESE,106,0.0,0.0,82,0.00,,,0.00,Wunderground v.1.15,2013-08-16 09:50:00,
2013-08-16 05:00:00,59.6,54.4,30.16,ESE,106,0.0,0.0,83,0.00,,,0.00,Wunderground v.1.15,2013-08-16 10:00:00,
2013-08-16 05:05:00,59.6,54.4,30.16,ESE,106,0.0,0.0,83,0.00,,,0.00,Wunderground v.1.15,2013-08-16 10:05:00,
2013-08-16 05:15:00,59.5,54.3,30.17,ESE,106,0.0,0.0,83,0.00,,,0.00,Wunderground v.1.15,2013-08-16 10:15:00,
2013-08-16 05:20:00,59.5,54.3,30.17,ESE,106,0.0,0.0,83,0.00,,,0.00,Wunderground v.1.15,2013-08-16 10:20:00,
2013-08-16 05:25:00,59.4,54.2,30.17,ESE,106,0.0,0.0,83,0.00,,,0.00,Wunderground v.1.15,2013-08-16 10:25:00,
2013-08-16 05:35:00,59.5,54.3,30.17,ESE,106,0.0,0.0,83,0.00,,,0.00,Wunderground v.1.15,2013-08-16 10:35:00,
2013-08-16 05:40:00,59.5,54.3,30.17,ESE,106,0.0,0.0,83,0.00,,,0.00,Wunderground v.1.15,2013-08-16 10:40:00,
2013-08-16 05:50:00,59.4,54.2,30.17,ESE,106,0.0,0.0,83,0.00,,,0.00,Wunderground v.1.15,2013-08-16 10:50:00,
2013-08-16 05:55:00,59.4,54.2,30.17,ESE,106,0.0,0.0,83,0.00,,,0.00,Wunderground v.1.15,2013-08-16 10:55:00,
2013-08-16 06:05:00,59.4,54.2,30.18,ESE,106,0.0,1.0,83,0.00,,,0.00,Wunderground v.1.15,2013-08-16 11:05:00,
2013-08-16 06:10:00,59.3,54.1,30.18,ESE,106,0.0,0.0,83,0.00,,,0.00,Wunderground v.1.15,2013-08-16 11:10:00,
2013-08-16 06:15:00,59.3,54.1,30.18,ESE,106,0.0,0.0,83,0.00,,,0.00,Wunderground v.1.15,2013-08-16 11:15:00,
2013-08-16 06:25:00,59.3,54.1,30.18,ESE,106,0.0,0.0,83,0.00,,,0.00,Wunderground v.1.15,2013-08-16 11:25:00,
2013-08-16 06:30:00,59.3,54.1,30.18,ESE,106,0.0,0.0,83,0.00,,,0.00,Wunderground v.1.15,2013-08-16 11:30:00,
2013-08-16 06:40:00,59.3,54.1,30.18,ESE,106,0.0,0.0,83,0.00,,,0.00,Wunderground v.1.15,2013-08-16 11:40:00,
2013-08-16 06:50:00,59.4,54.6,30.18,ESE,106,0.0,0.0,84,0.00,,,0.00,Wunderground v.1.15,2013-08-16 11:50:00,
2013-08-16 06:55:00,59.4,54.6,30.18,ESE,106,0.0,0.0,84,0.00,,,0.00,Wunderground v.1.15,2013-08-16 11:55:00,
2013-08-16 07:05:00,59.5,54.7,30.18,ESE,106,0.0,0.0,84,0.00,,,0.00,Wunderground v.1.15,2013-08-16 12:05:00,
2013-08-16 07:10:00,59.6,54.8,30.18,ESE,106,0.0,0.0,84,0.00,,,0.00,Wunderground v.1.15,2013-08-16 12:10:00,
2013-08-16 07:20:00,59.9,55.1,30.18,ESE,106,0.0,0.0,84,0.00,,,0.00,Wunderground v.1.15,2013-08-16 12:20:00,
2013-08-16 07:25:00,60.0,54.8,30.19,ESE,106,0.0,0.0,83,0.00,,,0.00,Wunderground v.1.15,2013-08-16 12:25:00,
2013-08-16 07:30:00,60.2,55.0,30.19,ESE,106,0.0,0.0,83,0.00,,,0.00,Wunderground v.1.15,2013-08-16 12:30:00,
2013-08-16 07:40:00,60.4,55.2,30.18,ESE,106,0.0,0.0,83,0.00,,,0.00,Wunderground v.1.15,2013-08-16 12:40:00,
2013-08-16 07:45:00,60.6,55.4,30.19,ESE,106,0.0,0.0,83,0.00,,,0.00,Wunderground v.1.15,2013-08-16 12:45:00,
2013-08-16 07:55:00,61.0,55.5,30.19,ESE,106,0.0,0.0,82,0.00,,,0.00,Wunderground v.1.15,2013-08-16 12:55:00,
2013-08-16 08:00:00,61.3,55.8,30.19,ESE,106,0.0,0.0,82,0.00,,,0.00,Wunderground v.1.15,2013-08-16 13:00:00,
2013-08-16 08:10:00,62.1,56.5,30.19,ESE,106,0.0,0.0,82,0.00,,,0.00,Wunderground v.1.15,2013-08-16 13:10:00,
2013-08-16 08:15:00,62.7,56.4,30.19,ESE,106,0.0,0.0,80,0.00,,,0.00,Wunderground v.1.15,2013-08-16 13:15:00,
2013-08-16 08:20:00,63.3,56.7,30.19,ESE,106,0.0,0.0,79,0.00,,,0.00,Wunderground v.1.15,2013-08-16 13:20:00,
2013-08-16 08:30:00,64.9,57.5,30.19,ESE,106,0.0,0.0,77,0.00,,,0.00,Wunderground v.1.15,2013-08-16 13:30:00,
2013-08-16 08:40:00,66.5,56.8,30.20,ESE,106,0.0,0.0,71,0.00,,,0.00,Wunderground v.1.15,2013-08-16 13:40:00,
2013-08-16 08:45:00,67.0,57.7,30.20,ESE,106,0.0,0.0,72,0.00,,,0.00,Wunderground v.1.15,2013-08-16 13:45:00,
2013-08-16 08:50:00,67.6,57.9,30.20,ESE,106,0.0,0.0,71,0.00,,,0.00,Wunderground v.1.15,2013-08-16 13:50:00,
2013-08-16 09:00:00,69.3,57.9,30.19,ESE,106,0.0,3.0,67,0.00,,,0.00,Wunderground v.1.15,2013-08-16 14:00:00,
2013-08-16 09:05:00,70.4,57.6,30.20,ESE,103,1.0,3.0,64,0.00,,,0.00,Wunderground v.1.15,2013-08-16 14:05:00,
2013-08-16 09:15:00,72.8,58.1,30.20,ENE,57,1.0,2.0,60,0.00,,,0.00,Wunderground v.1.15,2013-08-16 14:15:00,
2013-08-16 09:20:00,73.9,59.6,30.19,NE,41,1.0,4.0,61,0.00,,,0.00,Wunderground v.1.15,2013-08-16 14:20:00,
2013-08-16 09:25:00,74.6,56.9,30.19,NE,40,1.0,4.0,54,0.00,,,0.00,Wunderground v.1.15,2013-08-16 14:25:00,
2013-08-16 09:35:00,74.6,57.9,30.19,NE,40,0.0,1.0,56,0.00,,,0.00,Wunderground v.1.15,2013-08-16 14:35:00,
2013-08-16 09:40:00,74.4,57.2,30.19,NE,40,0.0,0.0,55,0.00,,,0.00,Wunderground v.1.15,2013-08-16 14:40:00,
2013-08-16 09:50:00,73.9,54.1,30.20,ENE,57,1.0,3.0,50,0.00,,,0.00,Wunderground v.1.15,2013-08-16 14:50:00,
2013-08-16 09:55:00,73.6,54.9,30.20,ENE,59,2.0,3.0,52,0.00,,,0.00,Wunderground v.1.15,2013-08-16 14:55:00,
2013-08-16 10:00:00,73.3,56.7,30.20,ENE,59,1.0,1.0,56,0.00,,,0.00,Wunderground v.1.15,2013-08-16 15:00:00,
2013-08-16 10:10:00,73.3,56.2,30.20,ENE,59,0.0,0.0,55,0.00,,,0.00,Wunderground v.1.15,2013-08-16 15:10:00,
2013-08-16 10:15:00,73.6,58.4,30.20,ENE,59,0.0,0.0,59,0.00,,,0.00,Wunderground v.1.15,2013-08-16 15:15:00,
2013-08-16 10:25:00,74.2,59.4,30.19,ENE,59,0.0,0.0,60,0.00,,,0.00,Wunderground v.1.15,2013-08-16 15:25:00,
2013-08-16 10:30:00,74.8,59.0,30.20,ENE,57,0.0,1.0,58,0.00,,,0.00,Wunderground v.1.15,2013-08-16 15:30:00,
2013-08-16 10:40:00,76.4,58.5,30.20,ENE,69,1.0,3.0,54,0.00,,,0.00,Wunderground v.1.15,2013-08-16 15:40:00,
2013-08-16 10:45:00,76.8,55.6,30.20,ENE,58,2.0,3.0,48,0.00,,,0.00,Wunderground v.1.15,2013-08-16 15:45:00,
2013-08-16 10:50:00,77.0,57.5,30.20,NE,53,2.0,2.0,51,0.00,,,0.00,Wunderground v.1.15,2013-08-16 15:50:00,
2013-08-16 11:00:00,77.4,58.4,30.20,NE,56,2.0,2.0,52,0.00,,,0.00,Wunderground v.1.15,2013-08-16 16:00:00,
2013-08-16 11:05:00,77.9,56.6,30.20,NE,56,2.0,2.0,48,0.00,,,0.00,Wunderground v.1.15,2013-08-16 16:05:00,
2013-08-16 11:15:00,78.3,57.0,30.20,ENE,60,1.0,3.0,48,0.00,,,0.00,Wunderground v.1.15,2013-08-16 16:15:00,
2013-08-16 11:20:00,78.7,57.4,30.20,NE,55,2.0,2.0,48,0.00,,,0.00,Wunderground v.1.15,2013-08-16 16:20:00,
2013-08-16 11:25:00,79.1,55.9,30.20,ENE,61,2.0,2.0,45,0.00,,,0.00,Wunderground v.1.15,2013-08-16 16:25:00,
2013-08-16 11:35:00,79.8,56.6,30.20,ENE,62,1.0,3.0,45,0.00,,,0.00,Wunderground v.1.15,2013-08-16 16:35:00,
2013-08-16 11:45:00,79.9,58.5,30.20,ENE,58,2.0,2.0,48,0.00,,,0.00,Wunderground v.1.15,2013-08-16 16:45:00,
2013-08-16 11:50:00,80.0,59.1,30.20,ENE,58,2.0,2.0,49,0.00,,,0.00,Wunderground v.1.15,2013-08-16 16:50:00,
2013-08-16 12:00:00,80.4,58.3,30.20,NE,48,3.0,3.0,47,0.00,,,0.00,Wunderground v.1.15,2013-08-16 17:00:00,
2013-08-16 12:05:00,80.5,57.8,30.19,ENE,61,2.0,3.0,46,0.00,,,0.00,Wunderground v.1.15,2013-08-16 17:05:00,
2013-08-16 12:15:00,80.9,56.3,30.19,ENE,71,3.0,3.0,43,0.00,,,0.00,Wunderground v.1.15,2013-08-16 17:15:00,
2013-08-16 12:20:00,80.9,57.6,30.19,ENE,59,3.0,5.0,45,0.00,,,0.00,Wunderground v.1.15,2013-08-16 17:20:00,
2013-08-16 12:25:00,80.9,57.6,30.19,ENE,62,3.0,5.0,45,0.00,,,0.00,Wunderground v.1.15,2013-08-16 17:25:00,
2013-08-16 12:35:00,80.9,56.9,30.19,ENE,76,3.0,3.0,44,0.00,,,0.00,Wunderground v.1.15,2013-08-16 17:35:00,
2013-08-16 12:40:00,80.7,57.4,30.19,ENE,59,2.0,3.0,45,0.00,,,0.00,Wunderground v.1.15,2013-08-16 17:40:00,
2013-08-16 12:50:00,80.6,54.7,30.19,ENE,60,4.0,4.0,41,0.00,,,0.00,Wunderground v.1.15,2013-08-16 17:50:00,
2013-08-16 12:55:00,80.6,54.7,30.19,ENE,70,3.0,5.0,41,0.00,,,0.00,Wunderground v.1.15,2013-08-16 17:55:00,
2013-08-16 13:05:00,80.7,55.5,30.18,NE,51,3.0,4.0,42,0.00,,,0.00,Wunderground v.1.15,2013-08-16 18:05:00,
2013-08-16 13:10:00,80.9,56.9,30.18,ENE,78,3.0,4.0,44,0.00,,,0.00,Wunderground v.1.15,2013-08-16 18:10:00,
2013-08-16 13:20:00,81.4,56.8,30.18,NE,56,4.0,4.0,43,0.00,,,0.00,Wunderground v.1.15,2013-08-16 18:20:00,
2013-08-16 13:25:00,81.4,55.4,30.18,ENE,60,4.0,4.0,41,0.00,,,0.00,Wunderground v.1.15,2013-08-16 18:25:00,
2013-08-16 13:30:00,81.6,57.6,30.18,ENE,76,3.0,3.0,44,0.00,,,0.00,Wunderground v.1.15,2013-08-16 18:30:00,
2013-08-16 13:40:00,82.0,57.3,30.18,NNE,23,2.0,2.0,43,0.00,,,0.00,Wunderground v.1.15,2013-08-16 18:40:00,
2013-08-16 13:50:00,81.8,57.1,30.18,ENE,68,1.0,1.0,43,0.00,,,0.00,Wunderground v.1.15,2013-08-16 18:50:00,
2013-08-16 13:55:00,81.6,55.6,30.18,ENE,69,1.0,3.0,41,0.00,,,0.00,Wunderground v.1.15,2013-08-16 18:55:00,
2013-08-16 14:00:00,81.2,57.8,30.18,ENE,64,1.0,1.0,45,0.00,,,0.00,Wunderground v.1.15,2013-08-16 19:00:00,
2013-08-16 14:10:00,80.3,57.6,30.18,ENE,58,2.0,8.0,46,0.00,,,0.00,Wunderground v.1.15,2013-08-16 19:10:00,
2013-08-16 14:15:00,79.9,57.9,30.18,ENE,58,3.0,8.0,47,0.00,,,0.00,Wunderground v.1.15,2013-08-16 19:15:00,
2013-08-16 14:25:00,79.6,56.4,30.17,NE,51,2.0,3.0,45,0.00,,,0.00,Wunderground v.1.15,2013-08-16 19:25:00,
2013-08-16 14:30:00,79.3,54.9,30.17,NE,55,2.0,4.0,43,0.00,,,0.00,Wunderground v.1.15,2013-08-16 19:30:00,
2013-08-16 14:40:00,79.1,55.9,30.17,ENE,57,3.0,3.0,45,0.00,,,0.00,Wunderground v.1.15,2013-08-16 19:40:00,
2013-08-16 14:50:00,79.5,54.4,30.17,ENE,61,3.0,3.0,42,0.00,,,0.00,Wunderground v.1.15,2013-08-16 19:50:00,
2013-08-16 14:55:00,79.3,53.6,30.17,ENE,74,4.0,4.0,41,0.00,,,0.00,Wunderground v.1.15,2013-08-16 19:55:00,
2013-08-16 15:00:00,78.9,53.2,30.17,ENE,73,3.0,3.0,41,0.00,,,0.00,Wunderground v.1.15,2013-08-16 20:00:00,
2013-08-16 15:10:00,78.7,56.2,30.17,ENE,69,2.0,3.0,46,0.00,,,0.00,Wunderground v.1.15,2013-08-16 20:10:00,
2013-08-16 15:15:00,78.6,56.7,30.16,ENE,73,3.0,3.0,47,0.00,,,0.00,Wunderground v.1.15,2013-08-16 20:15:00,
2013-08-16 15:25:00,78.5,54.1,30.16,ENE,72,2.0,2.0,43,0.00,,,0.00,Wunderground v.1.15,2013-08-16 20:25:00,
2013-08-16 15:30:00,78.6,57.3,30.16,ENE,67,2.0,3.0,48,0.00,,,0.00,Wunderground v.1.15,2013-08-16 20:30:00,
2013-08-16 15:40:00,78.4,54.7,30.16,ENE,63,3.0,3.0,44,0.00,,,0.00,Wunderground v.1.15,2013-08-16 20:40:00,
2013-08-16 15:45:00,78.3,53.3,30.16,ENE,69,3.0,5.0,42,0.00,,,0.00,Wunderground v.1.15,2013-08-16 20:45:00,
2013-08-16 15:50:00,78.0,54.3,30.16,ENE,67,2.0,2.0,44,0.00,,,0.00,Wunderground v.1.15,2013-08-16 20:50:00,
2013-08-16 16:00:00,77.8,53.5,30.16,ENE,59,2.0,2.0,43,0.00,,,0.00,Wunderground v.1.15,2013-08-16 21:00:00,
2013-08-16 16:10:00,77.6,52.7,30.16,NE,52,4.0,4.0,42,0.00,,,0.00,Wunderground v.1.15,2013-08-16 21:10:00,
2013-08-16 16:20:00,77.3,57.2,30.16,ENE,58,3.0,3.0,50,0.00,,,0.00,Wunderground v.1.15,2013-08-16 21:20:00,
2013-08-16 16:25:00,77.2,53.0,30.16,NE,54,3.0,3.0,43,0.00,,,0.00,Wunderground v.1.15,2013-08-16 21:25:00,
2013-08-16 16:30:00,77.2,56.0,30.16,ENE,63,2.0,4.0,48,0.00,,,0.00,Wunderground v.1.15,2013-08-16 21:30:00,
2013-08-16 16:40:00,76.9,53.9,30.16,ENE,61,4.0,4.0,45,0.00,,,0.00,Wunderground v.1.15,2013-08-16 21:40:00,
2013-08-16 16:50:00,76.9,54.5,30.17,ENE,61,2.0,4.0,46,0.00,,,0.00,Wunderground v.1.15,2013-08-16 21:50:00,
2013-08-16 16:55:00,76.8,52.0,30.17,ENE,57,3.0,4.0,42,0.00,,,0.00,Wunderground v.1.15,2013-08-16 21:55:00,
2013-08-16 17:05:00,76.8,56.2,30.16,ENE,75,2.0,4.0,49,0.00,,,0.00,Wunderground v.1.15,2013-08-16 22:05:00,
2013-08-16 17:15:00,76.8,54.5,30.16,ENE,59,3.0,4.0,46,0.00,,,0.00,Wunderground v.1.15,2013-08-16 22:15:00,
2013-08-16 17:20:00,76.7,54.4,30.16,ENE,58,3.0,3.0,46,0.00,,,0.00,Wunderground v.1.15,2013-08-16 22:20:00,
2013-08-16 17:30:00,76.6,53.1,30.16,ENE,67,3.0,3.0,44,0.00,,,0.00,Wunderground v.1.15,2013-08-16 22:30:00,
2013-08-16 17:35:00,76.4,53.5,30.16,East,82,2.0,3.0,45,0.00,,,0.00,Wunderground v.1.15,2013-08-16 22:35:00,
2013-08-16 17:45:00,75.8,51.7,30.16,NE,49,3.0,3.0,43,0.00,,,0.00,Wunderground v.1.15,2013-08-16 22:45:00,
2013-08-16 17:50:00,75.5,53.3,30.16,NE,49,2.0,2.0,46,0.00,,,0.00,Wunderground v.1.15,2013-08-16 22:50:00,
2013-08-16 18:00:00,75.3,54.3,30.16,ENE,57,2.0,2.0,48,0.00,,,0.00,Wunderground v.1.15,2013-08-16 23:00:00,
2013-08-16 18:05:00,75.1,52.9,30.17,ENE,57,1.0,2.0,46,0.00,,,0.00,Wunderground v.1.15,2013-08-16 23:05:00,
2013-08-16 18:15:00,74.7,54.3,30.16,ENE,57,1.0,1.0,49,0.00,,,0.00,Wunderground v.1.15,2013-08-16 23:15:00,
2013-08-16 18:20:00,74.5,54.6,30.16,ENE,57,1.0,1.0,50,0.00,,,0.00,Wunderground v.1.15,2013-08-16 23:20:00,
2013-08-16 18:25:00,74.2,54.4,30.16,ENE,57,0.0,1.0,50,0.00,,,0.00,Wunderground v.1.15,2013-08-16 23:25:00,
2013-08-16 18:35:00,73.7,55.0,30.16,ENE,57,0.0,1.0,52,0.00,,,0.00,Wunderground v.1.15,2013-08-16 23:35:00,
2013-08-16 18:40:00,73.4,54.2,30.17,ENE,57,1.0,1.0,51,0.00,,,0.00,Wunderground v.1.15,2013-08-16 23:40:00,
2013-08-16 18:50:00,73.1,54.9,30.17,ENE,57,1.0,1.0,53,0.00,,,0.00,Wunderground v.1.15,2013-08-16 23:50:00,
2013-08-16 19:00:00,72.8,55.2,30.17,ENE,57,0.0,0.0,54,0.00,,,0.00,Wunderground v.1.15,2013-08-17 00:00:00,
2013-08-16 19:05:00,72.6,54.5,30.17,ENE,57,0.0,0.0,53,0.00,,,0.00,Wunderground v.1.15,2013-08-17 00:05:00,
2013-08-16 19:10:00,72.4,55.3,30.17,ENE,57,0.0,0.0,55,0.00,,,0.00,Wunderground v.1.15,2013-08-17 00:10:00,
2013-08-16 19:20:00,72.1,56.5,30.17,ENE,57,0.0,0.0,58,0.00,,,0.00,Wunderground v.1.15,2013-08-17 00:20:00,
2013-08-16 19:25:00,72.0,56.9,30.17,ENE,57,0.0,0.0,59,0.00,,,0.00,Wunderground v.1.15,2013-08-17 00:25:00,
2013-08-16 19:35:00,71.7,57.1,30.17,ENE,57,0.0,0.0,60,0.00,,,0.00,Wunderground v.1.15,2013-08-17 00:35:00,
2013-08-16 19:45:00,71.2,56.6,30.17,ENE,57,0.0,0.0,60,0.00,,,0.00,Wunderground v.1.15,2013-08-17 00:45:00,
2013-08-16 19:50:00,71.0,56.9,30.17,ENE,57,0.0,0.0,61,0.00,,,0.00,Wunderground v.1.15,2013-08-17 00:50:00,
2013-08-16 20:00:00,70.4,56.8,30.18,ENE,57,0.0,0.0,62,0.00,,,0.00,Wunderground v.1.15,2013-08-17 01:00:00,
2013-08-16 20:05:00,70.1,56.9,30.18,ENE,57,0.0,0.0,63,0.00,,,0.00,Wunderground v.1.15,2013-08-17 01:05:00,
2013-08-16 20:15:00,69.6,57.3,30.18,ENE,57,0.0,0.0,65,0.00,,,0.00,Wunderground v.1.15,2013-08-17 01:15:00,
2013-08-16 20:20:00,69.3,57.0,30.18,ENE,57,0.0,0.0,65,0.00,,,0.00,Wunderground v.1.15,2013-08-17 01:20:00,
2013-08-16 20:30:00,68.8,57.4,30.18,ENE,57,0.0,0.0,67,0.00,,,0.00,Wunderground v.1.15,2013-08-17 01:30:00,
2013-08-16 20:35:00,68.6,57.2,30.19,ENE,57,0.0,0.0,67,0.00,,,0.00,Wunderground v.1.15,2013-08-17 01:35:00,
2013-08-16 20:45:00,68.3,57.3,30.19,ENE,57,0.0,0.0,68,0.00,,,0.00,Wunderground v.1.15,2013-08-17 01:45:00,
2013-08-16 20:50:00,68.1,57.5,30.19,ENE,57,0.0,0.0,69,0.00,,,0.00,Wunderground v.1.15,2013-08-17 01:50:00,
2013-08-16 21:00:00,67.7,57.6,30.19,ENE,57,0.0,0.0,70,0.00,,,0.00,Wunderground v.1.15,2013-08-17 02:00:00,
2013-08-16 21:05:00,67.6,58.2,30.19,ENE,57,0.0,0.0,72,0.00,,,0.00,Wunderground v.1.15,2013-08-17 02:05:00,
2013-08-16 21:10:00,67.5,58.2,30.19,ENE,57,0.0,0.0,72,0.00,,,0.00,Wunderground v.1.15,2013-08-17 02:10:00,
2013-08-16 21:20:00,67.1,58.2,30.19,ENE,57,0.0,0.0,73,0.00,,,0.00,Wunderground v.1.15,2013-08-17 02:20:00,
2013-08-16 21:30:00,66.7,57.8,30.19,ENE,57,0.0,0.0,73,0.00,,,0.00,Wunderground v.1.15,2013-08-17 02:30:00,
2013-08-16 21:35:00,66.4,57.9,30.20,ENE,57,0.0,0.0,74,0.00,,,0.00,Wunderground v.1.15,2013-08-17 02:35:00,
2013-08-16 21:40:00,66.2,57.7,30.20,ENE,57,0.0,0.0,74,0.00,,,0.00,Wunderground v.1.15,2013-08-17 02:40:00,
2013-08-16 21:50:00,65.7,57.6,30.20,ENE,57,0.0,0.0,75,0.00,,,0.00,Wunderground v.1.15,2013-08-17 02:50:00,
2013-08-16 21:55:00,65.5,57.7,30.20,ENE,57,0.0,0.0,76,0.00,,,0.00,Wunderground v.1.15,2013-08-17 02:55:00,
2013-08-16 22:05:00,65.0,57.2,30.20,ENE,57,0.0,0.0,76,0.00,,,0.00,Wunderground v.1.15,2013-08-17 03:05:00,
2013-08-16 22:10:00,64.8,57.1,30.20,ENE,57,0.0,0.0,76,0.00,,,0.00,Wunderground v.1.15,2013-08-17 03:10:00,
2013-08-16 22:20:00,64.5,57.5,30.20,ENE,57,0.0,0.0,78,0.00,,,0.00,Wunderground v.1.15,2013-08-17 03:20:00,
2013-08-16 22:25:00,64.3,57.3,30.19,ENE,57,0.0,0.0,78,0.00,,,0.00,Wunderground v.1.15,2013-08-17 03:25:00,
2013-08-16 22:35:00,64.0,57.4,30.20,ENE,57,0.0,0.0,79,0.00,,,0.00,Wunderground v.1.15,2013-08-17 03:35:00,
2013-08-16 22:40:00,63.9,57.3,30.20,ENE,57,0.0,0.0,79,0.00,,,0.00,Wunderground v.1.15,2013-08-17 03:40:00,
2013-08-16 22:50:00,63.5,57.2,30.20,ENE,57,0.0,0.0,80,0.00,,,0.00,Wunderground v.1.15,2013-08-17 03:50:00,
2013-08-16 22:55:00,63.3,57.0,30.20,ENE,57,0.0,0.0,80,0.00,,,0.00,Wunderground v.1.15,2013-08-17 03:55:00,
2013-08-16 23:05:00,62.9,56.6,30.20,ENE,57,0.0,0.0,80,0.00,,,0.00,Wunderground v.1.15,2013-08-17 04:05:00,
2013-08-16 23:10:00,62.6,56.3,30.20,ENE,57,0.0,0.0,80,0.00,,,0.00,Wunderground v.1.15,2013-08-17 04:10:00,
2013-08-16 23:15:00,62.4,56.1,30.20,ENE,57,0.0,0.0,80,0.00,,,0.00,Wunderground v.1.15,2013-08-17 04:15:00,
2013-08-16 23:25:00,61.9,55.7,30.20,ENE,57,0.0,0.0,80,0.00,,,0.00,Wunderground v.1.15,2013-08-17 04:25:00,
2013-08-16 23:30:00,61.7,55.5,30.20,ENE,57,0.0,0.0,80,0.00,,,0.00,Wunderground v.1.15,2013-08-17 04:30:00,
2013-08-16 23:40:00,61.2,55.3,30.20,ENE,57,0.0,0.0,81,0.00,,,0.00,Wunderground v.1.15,2013-08-17 04:40:00,
2013-08-16 23:45:00,60.9,55.0,30.20,ENE,57,0.0,0.0,81,0.00,,,0.00,Wunderground v.1.15,2013-08-17 04:45:00,
2013-08-16 23:55:00,60.4,54.5,30.20,ENE,57,0.0,0.0,81,0.00,,,0.00,Wunderground v.1.15,2013-08-17 04:55:00,